Location: Campillo
(40.8621°N, 4.2488°W)
Time: 18:41:57
(UTC+00:00)

USA 245 - Pass Details

Date: 27 September 2021
Orbit: 268 x 1011 km, 97.9° (Epoch: 25 October)

Event Time Altitude Azimuth Distance (km) Brightness Sun altitude
Exits shadow 21:53:15 12° 339° (NNW) 2,064 6.8 -40.7°
Drops below altitude 10° 21:53:33 10° 340° (NNW) 2,187 6.9 -40.7°
Sets 21:56:10 0° 344° (NNW) 3,245 7.9 -41.1°
